When you browse on this site, cookies collect data to enhance your experience and personalize the content and advertising you see.
Visit our Privacy Policy to learn more. By continuing to use the site, you agree to this use of cookies and data.
EN

Hourly Weather Potots'ke

Today, 9 August, Sunday

Time Temperature Precipitation Wind Pressure Humidity
00:00 +22°C° 0 mm 5 mps 747 mmHg 58%
01:00 +22°C° 0 mm 4 mps 747 mmHg 60%
02:00 +21°C° 0 mm 4 mps 748 mmHg 63%
03:00 +20°C° 0 mm 4 mps 747 mmHg 65%
04:00 +20°C° 0 mm 4 mps 747 mmHg 68%
05:00 +19°C° 0 mm 4 mps 747 mmHg 70%
06:00 +21°C° 0 mm 4 mps 747 mmHg 64%
07:00 +22°C° 0 mm 4 mps 748 mmHg 57%
08:00 +25°C° 0 mm 5 mps 748 mmHg 50%
09:00 +26°C° 0 mm 5 mps 748 mmHg 46%
10:00 +28°C° 0 mm 5 mps 748 mmHg 42%
11:00 +29°C° 0 mm 5 mps 748 mmHg 38%
12:00 +29°C° 0 mm 5 mps 747 mmHg 37%
13:00 +29°C° 0 mm 5 mps 747 mmHg 36%
14:00 +30°C° 0 mm 5 mps 747 mmHg 35%
15:00 +29°C° 0 mm 5 mps 747 mmHg 36%
16:00 +29°C° 0 mm 5 mps 746 mmHg 36%
17:00 +29°C° 0 mm 5 mps 746 mmHg 37%
18:00 +27°C° 0 mm 4 mps 746 mmHg 41%
19:00 +26°C° 0 mm 4 mps 746 mmHg 45%
20:00 +24°C° 0 mm 3 mps 746 mmHg 49%
21:00 +24°C° 0 mm 3 mps 747 mmHg 51%
22:00 +22°C° 0 mm 3 mps 747 mmHg 53%
23:00 +21°C° 0 mm 3 mps 747 mmHg 56%

Tomorrow, 10 August, Monday

Time Temperature Precipitation Wind Pressure Humidity
00:00 +20°C° 0 mm 3 mps 747 mmHg 60%
01:00 +20°C° 0 mm 3 mps 747 mmHg 65%
02:00 +19°C° 0 mm 3 mps 747 mmHg 69%
03:00 +19°C° 0 mm 3 mps 747 mmHg 71%
04:00 +19°C° 0 mm 3 mps 747 mmHg 73%
05:00 +19°C° 0 mm 2 mps 747 mmHg 75%
06:00 +21°C° 0 mm 3 mps 747 mmHg 68%
07:00 +24°C° 0 mm 3 mps 747 mmHg 61%
08:00 +26°C° 0 mm 3 mps 747 mmHg 54%
09:00 +27°C° 0 mm 3 mps 747 mmHg 49%
10:00 +28°C° 0 mm 3 mps 747 mmHg 45%
11:00 +29°C° 0 mm 3 mps 747 mmHg 40%
12:00 +29°C° 0 mm 3 mps 747 mmHg 38%
13:00 +30°C° 0 mm 2 mps 747 mmHg 36%
14:00 +30°C° 0 mm 2 mps 746 mmHg 33%
15:00 +30°C° 0 mm 2 mps 746 mmHg 34%
16:00 +30°C° 0 mm 3 mps 746 mmHg 35%
17:00 +29°C° 0 mm 3 mps 746 mmHg 36%
18:00 +28°C° 0 mm 3 mps 746 mmHg 40%
19:00 +27°C° 0 mm 3 mps 746 mmHg 43%
20:00 +26°C° 0 mm 3 mps 746 mmHg 46%
21:00 +26°C° 0 mm 3 mps 746 mmHg 48%
22:00 +25°C° 0 mm 2 mps 746 mmHg 50%
23:00 +25°C° 0 mm 2 mps 747 mmHg 53%

Day after tomorrow, 11 August, Tuesday

Time Temperature Precipitation Wind Pressure Humidity
00:00 +24°C° 0 mm 2 mps 747 mmHg 54%
01:00 +24°C° 0 mm 2 mps 747 mmHg 56%
02:00 +24°C° 0 mm 2 mps 746 mmHg 58%
03:00 +23°C° 0 mm 2 mps 746 mmHg 60%
04:00 +23°C° 0 mm 2 mps 746 mmHg 62%
05:00 +21°C° 0 mm 2 mps 746 mmHg 64%
06:00 +23°C° 0.1 mm 2 mps 746 mmHg 60%
07:00 +25°C° 0.1 mm 2 mps 746 mmHg 56%
08:00 +26°C° 0.1 mm 2 mps 747 mmHg 52%
09:00 +27°C° 0 mm 2 mps 747 mmHg 47%
10:00 +28°C° 0 mm 2 mps 747 mmHg 42%
11:00 +30°C° 0 mm 2 mps 747 mmHg 37%
12:00 +30°C° 0 mm 2 mps 746 mmHg 37%
13:00 +30°C° 0 mm 2 mps 746 mmHg 37%
14:00 +30°C° 0 mm 2 mps 746 mmHg 36%
15:00 +30°C° 0 mm 2 mps 746 mmHg 37%
16:00 +29°C° 0 mm 3 mps 746 mmHg 38%
17:00 +29°C° 0 mm 3 mps 746 mmHg 39%
18:00 +28°C° 0 mm 2 mps 746 mmHg 43%
19:00 +26°C° 0 mm 2 mps 745 mmHg 47%
20:00 +24°C° 0 mm 1 mps 745 mmHg 51%
21:00 +24°C° 0 mm 2 mps 745 mmHg 53%
22:00 +23°C° 0 mm 2 mps 746 mmHg 56%
23:00 +21°C° 0 mm 2 mps 746 mmHg 58%

12 August, Wednesday

Time Temperature Precipitation Wind Pressure Humidity
00:00 +21°C° 0 mm 2 mps 745 mmHg 62%
01:00 +20°C° 0 mm 2 mps 745 mmHg 65%
02:00 +20°C° 0 mm 2 mps 745 mmHg 69%
03:00 +19°C° 0 mm 2 mps 745 mmHg 75%
04:00 +19°C° 0 mm 2 mps 745 mmHg 81%
05:00 +18°C° 0 mm 3 mps 745 mmHg 86%
06:00 +20°C° 0 mm 3 mps 745 mmHg 81%
07:00 +21°C° 0 mm 4 mps 746 mmHg 75%
08:00 +22°C° 0 mm 4 mps 746 mmHg 69%
09:00 +25°C° 0 mm 4 mps 746 mmHg 61%
10:00 +26°C° 0 mm 4 mps 746 mmHg 54%
11:00 +27°C° 0 mm 5 mps 746 mmHg 46%
12:00 +28°C° 0 mm 5 mps 746 mmHg 44%
13:00 +28°C° 0 mm 5 mps 746 mmHg 41%
14:00 +28°C° 0 mm 5 mps 746 mmHg 38%
15:00 +28°C° 0 mm 5 mps 746 mmHg 39%
16:00 +27°C° 0 mm 5 mps 746 mmHg 39%
17:00 +27°C° 0 mm 6 mps 746 mmHg 40%
18:00 +25°C° 0 mm 5 mps 747 mmHg 44%
19:00 +22°C° 0 mm 5 mps 747 mmHg 48%
20:00 +20°C° 0 mm 5 mps 747 mmHg 52%
21:00 +19°C° 0 mm 5 mps 748 mmHg 55%
22:00 +17°C° 0 mm 5 mps 748 mmHg 59%
23:00 +16°C° 0 mm 5 mps 748 mmHg 62%

13 August, Thursday

Time Temperature Precipitation Wind Pressure Humidity
00:00 +15°C° 0 mm 4 mps 748 mmHg 66%
01:00 +14°C° 0 mm 4 mps 748 mmHg 70%
02:00 +13°C° 0 mm 3 mps 748 mmHg 74%
03:00 +13°C° 0 mm 3 mps 748 mmHg 75%
04:00 +12°C° 0 mm 3 mps 749 mmHg 77%
05:00 +12°C° 0 mm 3 mps 749 mmHg 79%
06:00 +14°C° 0 mm 4 mps 749 mmHg 72%
07:00 +17°C° 0 mm 4 mps 749 mmHg 64%
08:00 +19°C° 0 mm 4 mps 749 mmHg 57%
09:00 +21°C° 0 mm 4 mps 749 mmHg 51%
10:00 +22°C° 0 mm 4 mps 749 mmHg 44%
11:00 +23°C° 0 mm 4 mps 749 mmHg 38%
12:00 +23°C° 0 mm 4 mps 749 mmHg 38%
13:00 +23°C° 0 mm 4 mps 749 mmHg 38%
14:00 +23°C° 0 mm 4 mps 749 mmHg 38%
15:00 +23°C° 0 mm 4 mps 749 mmHg 37%
16:00 +23°C° 0 mm 4 mps 749 mmHg 37%
17:00 +23°C° 0 mm 4 mps 749 mmHg 36%
18:00 +21°C° 0 mm 4 mps 749 mmHg 42%
19:00 +20°C° 0 mm 3 mps 749 mmHg 47%
20:00 +18°C° 0 mm 3 mps 750 mmHg 52%
21:00 +17°C° 0 mm 3 mps 750 mmHg 54%
22:00 +16°C° 0 mm 3 mps 750 mmHg 56%
23:00 +16°C° 0 mm 2 mps 750 mmHg 57%

14 August, Friday

Time Temperature Precipitation Wind Pressure Humidity
00:00 +15°C° 0 mm 2 mps 750 mmHg 59%
01:00 +15°C° 0 mm 2 mps 750 mmHg 62%
02:00 +14°C° 0 mm 2 mps 750 mmHg 64%
03:00 +14°C° 0 mm 2 mps 750 mmHg 64%
04:00 +14°C° 0 mm 2 mps 750 mmHg 65%
05:00 +14°C° 0 mm 2 mps 750 mmHg 65%
06:00 +16°C° 0 mm 2 mps 750 mmHg 59%
07:00 +18°C° 0 mm 2 mps 750 mmHg 53%
08:00 +20°C° 0 mm 2 mps 750 mmHg 47%
09:00 +21°C° 0 mm 2 mps 750 mmHg 43%
10:00 +22°C° 0 mm 3 mps 750 mmHg 39%
11:00 +24°C° 0 mm 3 mps 750 mmHg 35%
12:00 +25°C° 0 mm 3 mps 750 mmHg 33%
13:00 +26°C° 0 mm 3 mps 750 mmHg 32%
14:00 +26°C° 0 mm 3 mps 749 mmHg 30%
15:00 +26°C° 0 mm 3 mps 749 mmHg 31%
16:00 +26°C° 0 mm 4 mps 749 mmHg 33%
17:00 +25°C° 0 mm 4 mps 749 mmHg 35%
18:00 +22°C° 0 mm 4 mps 749 mmHg 40%
19:00 +20°C° 0 mm 3 mps 749 mmHg 45%
20:00 +18°C° 0 mm 3 mps 749 mmHg 51%
21:00 +18°C° 0 mm 3 mps 750 mmHg 53%
22:00 +17°C° 0 mm 2 mps 750 mmHg 55%
23:00 +16°C° 0 mm 2 mps 750 mmHg 58%
Show more